RIGIDSPHERE 2 (LCS 4)

Last updated on Fri Dec 29 2023 00:03:35 GMT+0000 (Coordinated Universal Time)

1 05398U 71067E 23361.86988311 .00001172 00000+0 39479-3 0 9990 2 05398 87.6240 228.7096 0061617 343.7807 16.1416 14.35296195744325
UTC large
Height (km)
Speed (km/s)
/
Latitude / Longitude
Inclination (degrees)
Orbital Period (minutes)
Azimuth
Elevation
Range (km)
Doppler Factor

Next 0 passes for location: London (51.5072 / 0.1276)

Sorry there are no passes over London.
RIGIDSPHERE 2 (LCS 4)